Tracking 30107 objects as of 26-Jan-2025
HD Live streaming from Space Station
objects crossing your sky now

SL-8 DEB

Track SL-8 DEB now!
10-day predictions


NORAD ID: 21157
Int'l Code: 1991-009U
Perigee: 1,442.5 km
Apogee: 1,721.0 km
Inclination: 73.9 °
Period: 117.6 minutes
Semi major axis: 7952 km
RCS: 0.2621 m2 (medium)
Launch date: February 12, 1991
Source: Commonwealth of Independent States (former USSR) (CIS)
Launch site: PLESETSK MISSILE AND SPACE COMPLEX (PKMTR)

Note: This is SATELLITE DEBRIS
Your satellite tracking list
Your tracking list is empty




NASA's NSSDC Master Catalog

Two Line Element Set (TLE):
1 21157U 91009U   25026.08001479 -.00000010  00000-0  53234-4 0  9992
2 21157  73.9482 251.7166 0175090 246.3104 232.6609 12.24120491514926
Source of the keplerian elements: AFSPC